Tracking 21094 objects as of 12-Aug-2020
HD Live streaming from Space Station
objects crossing your sky now
Track the most recent launched group of Starlink satellites

ARIANE 42P DEB

Track ARIANE 42P DEB now!
10-day predictions


NORAD ID: 44508
Int'l Code: 1992-052F
Perigee: 1,093.4 km
Apogee: 1,723.7 km
Inclination: 66.0 °
Period: 113.8 minutes
Semi major axis: 7779 km
RCS: Unknown
Launch date: August 10, 1992
Source: France (FR)
Launch site: FRENCH GUIANA (FRGUI)

Note: This is SATELLITE DEBRIS
aabbcc
Your satellite tracking list
Your tracking list is empty




NASA's NSSDC Master Catalog

Two Line Element Set (TLE):
1 44508U 92052F   20223.89443498 +.00001300 +00000-0 +52928-2 0  9999
2 44508 066.0325 050.5017 0405082 150.6099 211.8364 12.65236121045915
Source of the keplerian elements: AFSPC